Погода в Ачаирском

Россия / Омская область     54°36′14″N   74°00′00″E
В апреле 2022 года жителям России запретили посещать сайт meteo.paraplan.net по решению Генеральной прокуратуры. Аудитория сайта уменьшилась в 10 раз. Владельцы сайта не видят смысла в поддержке погодного сервера в таких условиях. Сайт будет закрыт в октябре.
темп.,
°C
ветер,
м/с
пор.,
м/с
влажн.,
%
обл.,
%
осадки,
мм/ч
давл.,
гПа
погр.,
м
3 октября, пн
пн300:00+1юв346971 0.0 103761
03:000юв3370100 0.0 103746
06:000юв33725 0.0 103731
09:00+2юв24640 0.0 1037159
12:00+6юв33490 0.0 1036759
15:00+8юв11435 0.0 10351140
18:00+6вюв11510 0.0 103510
21:00+3вюв22605 0.0 103622
4 октября, вт
вт400:00+2ююв22645 0.0 103616
03:00+2ю226814 0.0 103511
06:00+1ююз226997 0.0 103612
09:00+3юз246393 0.0 1036125
12:00+8юз454559 0.0 1036614
15:00+10зюз563693 0.0 1035953
18:00+8зюз3645100 0.0 1034133
21:00+8зюз3847100 0.0 1034209
5 октября, ср
ср500:00+8зюз4947100 0.0 1034235
03:00+7з4105168 0.0 1033230
06:00+5з386274 0.0 1033138
09:00+7з486450 0.0 1034214
12:00+12зсз57545 0.0 1033472
15:00+15зсз674813 0.0 1032752
18:00+13з485769 0.0 1033156
21:00+10з3660100 0.0 103396
6 октября, чт
чт600:00+10з4857100 0.0 1032161
03:00+9з495597 0.0 1031172
06:00+8з3752100 0.0 1031143
09:00+8з3848100 0.0 1031224
12:00+11зсз3536100 0.0 1030357
15:00+13з3432100 0.0 1029509
18:00+11зсз2240100 0.0 102920
21:00+9юз1142100 0.0 102910
7 октября, пт
пт700:00+8ю2244100 0.0 102811
03:00+8ю334499 0.0 102724
06:00+7ююв3442100 0.0 102660
09:00+8ююв4842100 0.0 1025171
12:00+12ю5833100 0.0 1023366
15:00+15ю6831100 0.0 1020662
18:00+13ююв41043100 0.0 1018191
21:00+11ююв51353100 0.0 1016217